Weather History for Holloman AFB, NM

Change the Weather History Date:

Tuesday, October 11, 2011

  Actual Average Record
Temperature  
Mean Temperature 63 °F -  
Max Temperature 81 °F 76 °F 91 °F (1996)
Min Temperature 45 °F 48 °F 41 °F (2005)
Degree Days  
Heating Degree Days 2    
Growing Degree Days 13 (Base 50)    
Moisture  
Dew Point 30 °F    
Average Humidity 34    
Maximum Humidity 62    
Minimum Humidity 11    
Precipitation  
Precipitation 0.00 in - - ()
Sea Level Pressure  
Sea Level Pressure 29.77 in    
Wind  
Wind Speed 5 mph (NE)    
Max Wind Speed 9 mph    
Max Gust Speed 18 mph    
Visibility 10 miles    
Events      
Averages and records for this station are not official NWS values.
T = Trace of Precipitation, MM = Missing Value Source: NWS Daily Summary

Daily Weather History Graph

Daily Weather History Graph

Search for Another Location

Airport:

Trip Planner

Search our weather history database for the weather conditions in past years. The results will help you decide how hot, cold, wet, or windy it might be!

Date:

Astronomy

Oct. 11, 2011 Rise Set
Actual Time 7:05 AM MDT 6:36 PM MDT
Civil Twilight 6:40 AM MDT 7:01 PM MDT
Nautical Twilight 6:12 AM MDT 7:29 PM MDT
Astronomical Twilight 5:43 AM MDT 7:58 PM MDT
Moon 6:12 PM MDT (10/11) 6:43 AM MDT (10/11)
Length of Visible Light 12h 20m
Length of Day
11h 30m
Full, 100% of the Moon is Illuminated
Oct 11
Full
Oct 11
Full
Oct 19
Last Quarter
Oct 26
New
Nov 2
First Quarter

Hourly Weather History & Observations

Time (MDT) Temp. Windchill Dew Point Humidity Pressure Visibility Wind Dir Wind Speed Gust Speed Precip Events Conditions
12:55 AM 53.2 °F - 31.6 °F 44% 29.79 in 10.0 mi Calm Calm - N/A   Clear
1:55 AM 58.5 °F - 36.9 °F 45% 29.77 in 10.0 mi SSW 9.2 mph - N/A   Clear
2:55 AM 52.3 °F - 34.2 °F 50% 29.79 in 10.0 mi ENE 3.5 mph - N/A   Clear
3:55 AM 49.5 °F - 34.0 °F 55% 29.79 in 10.0 mi East 4.6 mph - N/A   Clear
4:55 AM 47.1 °F - 33.1 °F 58% 29.78 in 10.0 mi NE 4.6 mph - N/A   Clear
5:55 AM 46.2 °F 43.3 °F 33.3 °F 61% 29.80 in 10.0 mi NNE 5.8 mph - N/A   Clear
6:55 AM 45.3 °F 41.6 °F 33.1 °F 62% 29.81 in 10.0 mi NNE 6.9 mph - N/A   Clear
7:55 AM 49.1 °F - 36.5 °F 62% 29.84 in 10.0 mi NNE 8.1 mph - N/A   Clear
8:55 AM 60.3 °F - 43.2 °F 53% 29.85 in 10.0 mi East 4.6 mph - N/A   Clear
9:55 AM 66.0 °F - 45.1 °F 47% 29.85 in 10.0 mi SSW 4.6 mph - N/A   Clear
10:55 AM 69.4 °F - 45.5 °F 42% 29.83 in 10.0 mi SSW 5.8 mph - N/A   Clear
11:55 AM 73.9 °F - 38.5 °F 28% 29.80 in 10.0 mi Variable 4.6 mph - N/A   Clear
12:55 PM 77.4 °F - 29.5 °F 17% 29.77 in 10.0 mi SW 9.2 mph - N/A   Clear
1:55 PM 79.0 °F - 24.6 °F 13% 29.71 in 10.0 mi Variable 6.9 mph - N/A   Clear
2:55 PM 80.1 °F - 25.0 °F 13% 29.70 in 10.0 mi West 8.1 mph 18.4 mph N/A   Clear
3:55 PM 80.6 °F - 21.9 °F 11% 29.70 in 10.0 mi WSW 6.9 mph - N/A   Clear
4:55 PM 81.0 °F - 22.1 °F 11% 29.69 in 10.0 mi West 6.9 mph - N/A   Clear
5:55 PM 79.5 °F - 21.2 °F 11% 29.70 in 10.0 mi Calm Calm - N/A   Clear
6:55 PM 74.1 °F - 23.2 °F 15% 29.71 in 10.0 mi NE 5.8 mph - N/A   Clear
7:55 PM 65.7 °F - 23.7 °F 20% 29.74 in 10.0 mi East 6.9 mph - N/A   Clear
8:55 PM 61.0 °F - 23.0 °F 23% 29.73 in 10.0 mi ENE 9.2 mph - N/A   Clear
9:55 PM 58.6 °F - 23.2 °F 26% 29.73 in 10.0 mi ENE 9.2 mph - N/A   Clear
10:55 PM 55.8 °F - 21.7 °F 27% 29.76 in 10.0 mi WNW 8.1 mph - N/A   Clear
11:55 PM 54.9 °F - 23.4 °F 30% 29.76 in 10.0 mi North 8.1 mph - N/A   Clear